Location: ????????
(55.6189°N, 38.3031°E)
Time: 10:03:51
(UTC+00:00)

Cosmos 2237 Rocket - Pass Details

Date: 15 November 2019
Orbit: 834 x 850 km, 71.0° (Epoch: 14 December)

Event Time Altitude Azimuth Distance (km) Brightness Sun altitude
Exits shadow 01:55:56 15° 343° (NNW) 2,157 4.2 -25.7°
Maximum altitude 01:58:23 19° 14° (NNE) 1,925 4.2 -25.3°
Drops below altitude 10° 02:02:23 10° 59° (ENE) 2,482 5.4 -24.8°
Sets 02:05:35 0° 77° (ENE) 3,414 6.7 -24.3°
